Regional Weather Roundup
Issued by NWS

Home | Current Version | Previous Version | Text Only | Print | Product List | Glossary Off
Versions: 1 2 3 4 5 6 7 8 9 10 11 12 13 14 15 16 17 18 19 20 21 22 23 24 25 26 27 28 29 30 31 32 33 34 35 36 37 38 39 40 41 42 43 44 45 46 47 48 49 50

000
ASUS43 KMKX 230921
RWRWI

WISCONSIN REGIONAL WEATHER ROUNDUP
NATIONAL WEATHER SERVICE MILWAUKEE/SULLIVAN WI
300 AM CST THU FEB 23 2017

NOTE: "FAIR" INDICATES FEW OR NO CLOUDS BELOW 12,000 FEET WITH NO
SIGNIFICANT WEATHER AND/OR OBSTRUCTIONS TO VISIBILITY.

WIZ001-002-006>008-014>016-023>028-231000-
NORTHWEST WISCONSIN

CITY           SKY/WX    TMP DP  RH WIND       PRES   REMARKS
SUPERIOR ARPT  PTCLDY    32  27  83 N7        29.87R WCI  25
ASHLAND        CLOUDY    32  30  92 N7        29.84R WCI  26
HAYWARD        LGT SNOW  33  31  92 VRB5      29.81S FOG     WCI  29
SIREN          CLOUDY    33  30  89 N7        29.86R WCI  27
CUMBERLAND     CLOUDY    32  32 100 N10       29.82R WCI  24
RICE LAKE      CLOUDY    35  32  90 CALM      29.83R
CHETEK         CLOUDY    35  32  90 N7        29.82R WCI  29
LADYSMITH      CLOUDY    35  32  89 N12       29.79R WCI  27
EAU CLAIRE     CLOUDY    37  33  85 N13       29.78R WCI  29
MENOMONIE      CLOUDY    37  32  84 NW10      29.81R WCI  30
NEW RICHMOND   CLOUDY    34  32  93 N12       29.84R WCI  25
OSCEOLA        CLOUDY    35  31  87 NW8       29.88R WCI  28
$$

WIZ003>005-009-010-017-018-231000-
NORTH CENTRAL WISCONSIN

CITY           SKY/WX    TMP DP  RH WIND       PRES   REMARKS
MANITOWISH WTR CLOUDY    31  31 100 N9        29.75R WCI  23
ARBOR VITAE    CLOUDY    33  31  93 N14G21      N/A  WCI  23
WOODRUFF       CLOUDY    33  31  93 N14G21      N/A  WCI  23
RHINELANDER    CLOUDY    34  32  92 N9        29.70R WCI  27
EAGLE RIVER    CLOUDY    32  31  97 N10       29.70R WCI  23
LAND O LAKES   CLOUDY    31  30  95 N7        29.74R WCI  24
PHILLIPS       CLOUDY    32  31  96 N7        29.75R WCI  26
TOMAHAWK       CLOUDY    33  31  94 N7        29.73R WCI  26
MEDFORD        CLOUDY    34  31  88 N12       29.73R WCI  26
MERRILL        NOT AVBL
$$

WIZ029-030-035-036-043>047-231000-
CENTRAL WISCONSIN

CITY           SKY/WX    TMP DP  RH WIND       PRES   REMARKS
WAUSAU         CLOUDY    37  33  85 N14       29.68R WCI  28
MOSINEE        CLOUDY    36  36 100 N14G21    29.71R WCI  27
MARSHFIELD     CLOUDY    38  34  85 NW18      29.70R WCI  28
STEVENS POINT  DRIZZLE   39  39 100 NW8       29.68R WCI  33
WAUPACA        CLOUDY    45  40  85 NW7G16    29.67R
WAUTOMA        MOCLDY    45  40  82 NW18G24   29.67R
WISC RAPIDS    CLOUDY    41  38  89 NW13G25   29.70R
CAMP DOUGLAS   CLOUDY    45  37  76 NW18G24   29.69S
$$

WIZ011>013-019>022-031-037>040-048>050-231000-
NORTHEAST WISCONSIN

CITY           SKY/WX    TMP DP  RH WIND       PRES   REMARKS
ANTIGO         CLOUDY    35  32  90 N13       29.68R WCI  26
SHAWANO        CLOUDY    38  37  93 CALM      29.65R FOG
OCONTO         CLOUDY    39  35  84 N8        29.64R WCI  33
STURGEON BAY   CLOUDY    37  35  92 N10       29.64R WCI  30
GREEN BAY      CLOUDY    38  38 100 W5        29.65R FOG     WCI  34
MANITOWOC      FOG       39  37  93 N6        29.64R VSB 1/2 WCI  35
APPLETON       PTCLDY    36  34  93 NW9       29.63R WCI  29
CLINTONVILLE   CLOUDY    37  34  87 NW3       29.66R
OSHKOSH        PTCLDY    44  39  82 W10       29.63R
$$

WIZ032>034-041-042-053>061-231000-
SOUTHWEST WISCONSIN

CITY           SKY/WX    TMP DP  RH WIND       PRES   REMARKS
LA CROSSE      CLOUDY    42  36  79 NW14      29.75R
SPARTA         CLOUDY    41  37  85 NW10      29.75R
VIROQUA        MOCLDY    40  37  88 NW20G25   29.72R WCI  31
BOSCOBEL       MOCLDY    47  40  76 SW9       29.74R
PRAIRIE DU CHI MOCLDY    44  37  76 NW12      29.75F
PLATTEVILLE    MOCLDY    44  43  96 NW14      29.73R
$$

WIZ056-057-062-063-064-067-068-231000-
SOUTH CENTRAL WISCONSIN

CITY           SKY/WX    TMP DP  RH WIND       PRES   REMARKS
REEDSBURG      CLOUDY    46  43  89 W8        29.69R
BARABOO/DELLS  CLOUDY    46  40  81 NW6       29.68R
LONE ROCK      MOCLDY    47  40  76 W12       29.72R
MINERAL POINT  MOCLDY    46  43  87 W9        29.71R
MADISON        CLEAR     47  41  80 NW12G18   29.67R
MIDDLETON      PTCLDY    47  42  82 NW9       29.69R
WATERTOWN      CLEAR     46  44  90 W6        29.66S
MONROE         CLEAR     45  43  93 W10       29.68S
JANESVILLE     CLEAR     45  43  93 W7        29.68S
$$

WIZ051-052-058>065-066-070>072-231000-
SOUTHEAST WISCONSIN

CITY           SKY/WX    TMP DP  RH WIND       PRES   REMARKS
MILWAUKEE      CLEAR     53  43  68 W12       29.64R
WAUKESHA       CLEAR     45  41  87 W7        29.66R
MILWAUKEE/TIMM CLEAR     48  39  71 W10       29.65R
RACINE         CLEAR     51  42  71 W9        29.65R
KENOSHA        CLEAR     50  43  77 W12       29.64R
FOND DU LAC    PTCLDY    45  39  79 W13       29.65R
SHEBOYGAN      PTCLDY    47  39  74 W10G20    29.62R
WEST BEND      CLEAR     48  43  81 W13G21    29.63S
JUNEAU         PTCLDY    46  41  83 W14G20    29.67R
$$

LSZ147-162-231000-
LAKE SUPERIOR

STATION/POSITION TIME  TEMP    WIND        PRES    WAVE
                       AIR SEA DIR/SP/G            HT/PER
                 (UTC) (F)     (DEG/KT/KT) (MB)    (FT/S)
DEVILS ISLAND    0900   33     340/ 16/ 17 1011.1R
PORT WING        0840   34     340/ 10/ 12 1010.8R
SAXON HARBOR     0840   33     330/  9/ 10 1009.8R
$$

LMZ867-665-643>646-231000-
LAKE MICHIGAN

STATION/POSITION TIME  TEMP    WIND        PRES    WAVE
                       AIR SEA DIR/SP/G            HT/PER
                 (UTC) (F)     (DEG/KT/KT) (MB)    (FT/S)
CHAMBERS ISLAND  0840   36     320/ 14/ 16 1002.7R
NORTHPORT PIER   0840   35     300/  9/ 15 1003.0R
SISTER BAY       0835   34     320/ 11/ 12   N/A
KEWAUNEE LAKESHO 0854   39     340/  4/  6 1002.9R
SHEBOYGAN LAKESH 0900   50     270/ 14/ 17 1002.7R
PORT WASHINGTON  0840   52     280/  7/ 14 1004.1R
MILWAUKEE LAKESH 0900   53     280/ 14/ 16   N/A
KENOSHA   LAKESH 0900   52     280/ 12/ 16 1004.1
$$

TC  - TEMPERATURE IN CELSIUS
VSB - VISIBILITY IN STATUTE MILES
WCI - WIND CHILL INDEX
HX  - HEAT INDEX





USA.gov is the U.S. government's official web portal to all federal, state and local government web resources and services.